Weather History for Whiting Fld NAS, FL

Change the Weather History Date:

Tuesday, November 19, 2013

  Actual Average Record
Temperature  
Mean Temperature 56 °F -  
Max Temperature 64 °F 66 °F 79 °F (1998)
Min Temperature 46 °F 48 °F 19 °F (2014)
Degree Days  
Heating Degree Days 9    
Growing Degree Days 6 (Base 50)    
Moisture  
Dew Point 44 °F    
Average Humidity 67    
Maximum Humidity 74    
Minimum Humidity 61    
Precipitation  
Precipitation 0.00 in - - ()
Sea Level Pressure  
Sea Level Pressure 30.04 in    
Wind  
Wind Speed 6 mph (North)    
Max Wind Speed 12 mph    
Max Gust Speed -    
Visibility 10 miles    
Events      
Averages and records for this station are not official NWS values.
T = Trace of Precipitation, MM = Missing Value Source: NWS Daily Summary

Daily Weather History Graph

Daily Weather History Graph

Search for Another Location

Airport:

Trip Planner

Search our weather history database for the weather conditions in past years. The results will help you decide how hot, cold, wet, or windy it might be!

Date:

Astronomy

Nov. 19, 2013 Rise Set
Actual Time 6:18 AM CST 4:48 PM CST
Civil Twilight 5:52 AM CST 5:14 PM CST
Nautical Twilight 5:23 AM CST 5:43 PM CST
Astronomical Twilight 4:54 AM CST 6:12 PM CST
Moon 6:40 PM CST (11/19) 7:55 AM CST (11/19)
Length of Visible Light 11h 22m
Length of Day
10h 30m
Waning Gibbous, 96% of the Moon is Illuminated
Nov 19
Waning Gibbous
Nov 25
Last Quarter
Dec 2
New
Dec 9
First Quarter
Dec 17
Full

Hourly Weather History & Observations

Time (CST) Temp. Dew Point Humidity Pressure Visibility Wind Dir Wind Speed Gust Speed Precip Events Conditions
12:56 AM 54.0 °F 41.0 °F 62% 30.01 in 10.0 mi North 4.6 mph - N/A   Clear
1:56 AM 54.0 °F 42.1 °F 64% 30.01 in 10.0 mi North 4.6 mph - N/A   Clear
2:56 AM 52.0 °F 39.0 °F 61% 30.03 in 10.0 mi North 5.8 mph - N/A   Clear
3:56 AM 51.1 °F 39.0 °F 63% 30.03 in 10.0 mi North 5.8 mph - N/A   Clear
4:56 AM 48.9 °F 39.9 °F 71% 30.04 in 10.0 mi North 5.8 mph - N/A   Clear
5:56 AM 48.0 °F 39.9 °F 74% 30.06 in 10.0 mi North 3.5 mph - N/A   Mostly Cloudy
6:56 AM 48.0 °F 39.9 °F 74% 30.07 in 10.0 mi Variable 4.6 mph - N/A   Mostly Cloudy
7:56 AM 52.0 °F 39.9 °F 63% 30.09 in 10.0 mi NNE 5.8 mph - N/A   Mostly Cloudy
8:56 AM 54.0 °F 43.0 °F 66% 30.09 in 10.0 mi North 9.2 mph - N/A   Mostly Cloudy
9:56 AM 57.9 °F 46.9 °F 67% 30.08 in 10.0 mi NNE 8.1 mph - N/A   Scattered Clouds
10:56 AM 60.1 °F 48.9 °F 67% 30.04 in 10.0 mi North 8.1 mph - N/A   Scattered Clouds
11:56 AM 63.0 °F 52.0 °F 67% 30.01 in 10.0 mi North 8.1 mph - N/A   Scattered Clouds
12:56 PM 64.0 °F 53.1 °F 67% 30.00 in 10.0 mi Variable 5.8 mph - N/A   Scattered Clouds
1:56 PM 64.4 °F 53.6 °F 68% 29.99 in 10.0 mi Variable 5.8 mph - N/A   Scattered Clouds
2:56 PM 64.9 °F 54.0 °F 68% 29.99 in 9.0 mi North 11.5 mph - N/A   Scattered Clouds
3:56 PM 61.0 °F 48.9 °F 64% 30.00 in 10.0 mi North 6.9 mph - N/A   Scattered Clouds
4:56 PM 57.0 °F 46.0 °F 67% 30.01 in 10.0 mi North 8.1 mph - N/A   Scattered Clouds
5:56 PM 55.0 °F 43.0 °F 64% 30.03 in 10.0 mi NNW 4.6 mph - N/A   Mostly Cloudy
6:56 PM 54.0 °F 42.1 °F 64% 30.04 in 10.0 mi North 9.2 mph - N/A   Scattered Clouds
7:56 PM 53.1 °F 41.0 °F 64% 30.05 in 10.0 mi North 4.6 mph - N/A   Mostly Cloudy
8:56 PM 51.1 °F 39.9 °F 66% 30.05 in 10.0 mi North 5.8 mph - N/A   Scattered Clouds
9:56 PM 48.9 °F 39.0 °F 69% 30.05 in 10.0 mi North 4.6 mph - N/A   Scattered Clouds
10:56 PM 48.0 °F 37.9 °F 68% 30.04 in 10.0 mi North 4.6 mph - N/A   Partly Cloudy
11:56 PM 46.9 °F 37.9 °F 71% 30.04 in 10.0 mi North 5.8 mph - N/A   Clear